This demonstration page uses our WeatherBlox Daily Observations layout. Learn more.

39.92423, -83.80882

Hourly Observations for September 1, 2018

Temp ( °F °C ) Dew Point ( °F °C ) Humidity (%) Winds ( mph kmh ) Pressure ( in mb ) Visibility ( mi km ) Precip ( " mm )
12:56 am 00:56 Clear 71 21.7 71 21.7 100 100 SSE 3 6 30.13 1020 10 16.0934 0 0
1:56 am 01:56 Clear 69 20.6 69 20.6 100 100 Calm 30.13 1020 10 16.0934 0 0
2:56 am 02:56 Clear 69 20.6 69 20.6 100 100 Calm 30.11 1020 10 16.0934 0 0
3:56 am 03:56 Clear 68 20 68 20 100 100 E 5 7 30.11 1020 10 16.0934 0 0
4:56 am 04:56 Clear 69 20.6 68 20 96 96 SE 9 15 30.1 1019 10 16.0934 0 0
5:56 am 05:56 Clear 68 20 68 20 100 100 SSE 6 9 30.11 1020 10 16.0934 0 0
6:56 am 06:56 Clear 68 20 68 20 100 100 S 5 7 30.13 1020 10 16.0934 0 0
7:56 am 07:56 Mostly Cloudy 69 20.6 69 20.6 100 100 Calm 30.16 1021 10 16.0934 0 0
8:56 am 08:56 Mostly Cloudy with Light Rain 70 21.1 70 21.1 100 100 SSW 3 6 30.17 1022 10 16.0934 0.08 2.032
9:56 am 09:56 Cloudy 72 22.2 70 21.1 94 94 SW 6 9 30.19 1022 10 16.0934 0 0
10:56 am 10:56 Mostly Sunny 75 23.9 71 21.7 88 88 SW 6 9 30.18 1022 10 16.0934 0 0
11:56 am 11:56 Mostly Sunny 77 25 72 22.2 85 85 S 5 7 30.17 1022 10 16.0934 0 0
12:56 pm 12:56 Partly Cloudy 82 27.8 73 22.8 74 74 VRB 3 6 30.17 1022 10 16.0934 0 0
1:48 pm 13:48 Mostly Cloudy 82 28 72 22 70 70 SW 5 7 30.12 1020 10 16.0934 0 0
1:56 pm 13:56 Mostly Cloudy 81 27.2 72 22.2 74 74 VRB 6 9 30.15 1021 10 16.0934 0 0
2:56 pm 14:56 Mostly Cloudy with Heavy Rain 78 25.6 73 22.8 85 85 SW 7 11 30.13 1020 9 14.48406 0.05 1.27
3:14 pm 15:14 Mostly Cloudy with Nearby Thunderstorms 81 27 75 24 84 84 WSW 6 9 30.09 1019 10 16.0934 0.02 0.508
3:29 pm 15:29 Mostly Cloudy with Light Rain 79 26 75 24 89 89 SSW 3 6 30.12 1020 10 16.0934 0.02 0.508
3:41 pm 15:41 Mostly Cloudy with Light Thunderstorms 77 25 75 24 94 94 SW 8 13 30.12 1020 10 16.0934 0.02 0.508
3:56 pm 15:56 Cloudy with Thunderstorms 74 23.3 73 22.8 97 97 WSW 14 22 30.14 1021 5 8.0467 0.12 3.048
4:34 pm 16:34 Mostly Cloudy 73 23 73 23 100 100 SW 6 9 30.12 1020 10 16.0934 0.01 0.254
4:56 pm 16:56 Mostly Cloudy 73 22.8 72 22.2 96 96 SW 8 13 30.15 1021 10 16.0934 0.01 0.254
5:29 pm 17:29 Mostly Cloudy with Nearby Thunderstorms 72 22 70 21 94 94 WSW 12 19 30.12 1020 10 16.0934 0 0
5:44 pm 17:44 Mostly Sunny 72 22 70 21 94 94 SW 12 19 30.12 1020 10 16.0934 0 0
5:56 pm 17:56 Sunny with Light Rain 71 21.7 70 21.1 96 96 SSW 6 9 30.13 1020 10 16.0934 0 0.0254
6:56 pm 18:56 Partly Cloudy with Light Rain 71 21.7 71 21.7 100 100 SSE 8 13 30.11 1020 10 16.0934 0.01 0.254
7:56 pm 19:56 Sunny 70 21.1 70 21.1 100 100 ESE 3 6 30.11 1020 10 16.0934 0 0.0254
8:56 pm 20:56 Clear 69 20.6 69 20.6 100 100 SSE 7 11 30.12 1020 10 16.0934 0 0
9:56 pm 21:56 Clear 69 20.6 69 20.6 100 100 SSE 3 6 30.14 1021 10 16.0934 0 0
10:56 pm 22:56 Clear 68 20 68 20 100 100 SSE 6 9 30.15 1021 10 16.0934 0 0
11:56 pm 23:56 Clear 68 20 68 20 100 100 SSE 6 9 30.14 1021 10 16.0934 0 0

Powered by AerisWeather